Location: Six Mile Lake
(44.9000°N, 79.7170°W)
Time: 18:38:23
(UTC-04:00)

EO-79 - Pass Details

Date: 04 July 2022
Orbit: 588 x 603 km, 98.0° (Epoch: 16 August)

Event Time Altitude Azimuth Distance (km) Brightness Sun altitude
Rises 03:53:38 0° 3° (N) 2,858 ? -14.1°
Reaches altitude 10° 03:56:01 10° 352° (N) 1,953 ? -13.8°
Maximum altitude 03:59:41 29° 292° (WNW) 1,112 ? -13.4°
Enters shadow 04:02:03 17° 244° (WSW) 1,519 ? -13.2°
